This demonstration page uses our WeatherBlox Daily Observations layout. Learn more.

Left ArrowRight Arrow

39.95238, -75.16362

Hourly Observations for September 27, 2019

Temp ( °F °C ) Dew Point ( °F °C ) Humidity (%) Winds ( mph kmh ) Pressure ( in mb ) Visibility ( mi km ) Precip ( " mm )
12:54 am 00:54 Clear 64 17.8 59 15 84 84 NNW 7 11 29.97 1015 10 16 0.00 0.00
1:54 am 01:54 Clear 63 17.2 58 14.4 84 84 NNW 6 9 29.99 1016 10 16 0.00 0.00
2:54 am 02:54 Clear 61 16.1 57 13.9 87 87 N 6 9 30.00 1016 10 16 0.00 0.00
3:54 am 03:54 Clear 60 15.6 56 13.3 86 86 N 6 9 30.01 1016 10 16 0.00 0.00
4:54 am 04:54 Clear 60 15.6 56 13.3 86 86 N 6 9 30.04 1017 10 16 0.00 0.00
5:54 am 05:54 Clear 59 15 55 12.8 87 87 VRB 5 7 30.06 1018 10 16 0.00 0.00
6:54 am 06:54 Mostly Sunny 59 15 54 12.2 83 83 NNW 5 7 30.09 1019 10 16 0.00 0.00
7:54 am 07:54 Mostly Sunny 60 15.6 55 12.8 84 84 NNW 5 7 30.11 1020 10 16 0.00 0.00
8:54 am 08:54 Mostly Sunny 65 18.3 54 12.2 68 68 NNE 5 7 30.14 1021 10 16 0.00 0.00
9:54 am 09:54 Mostly Sunny 69 20.6 51 10.6 53 53 NNE 7 11 30.15 1021 10 16 0.00 0.00
10:54 am 10:54 Mostly Sunny 72 22.2 47 8.3 41 41 NE 3 6 30.15 1021 10 16 0.00 0.00
11:54 am 11:54 Mostly Sunny 75 23.9 46 7.8 36 36 ESE 6 9 30.15 1021 10 16 0.00 0.00
12:54 pm 12:54 Mostly Sunny 77 25 45 7.2 32 32 ESE 6 9 30.13 1020 10 16 0.00 0.00
1:54 pm 13:54 Partly Cloudy 77 25 44 6.7 31 31 SE 5 7 30.11 1020 10 16 0.00 0.00
2:54 pm 14:54 Mostly Cloudy 78 25.6 43 6.1 29 29 WSW 3 6 30.10 1019 10 16 0.00 0.00
3:54 pm 15:54 Mostly Cloudy 79 26.1 45 7.2 30 30 VRB 5 7 30.08 1019 10 16 0.00 0.00
4:54 pm 16:54 Mostly Cloudy 78 25.6 46 7.8 32 32 W 7 11 30.09 1019 10 16 0.00 0.00
5:54 pm 17:54 Mostly Cloudy 77 25 48 8.9 36 36 SW 5 7 30.09 1019 10 16 0.00 0.00
6:54 pm 18:54 Mostly Cloudy 75 23.9 55 12.8 50 50 SSW 8 13 30.10 1019 10 16 0.00 0.00
7:54 pm 19:54 Mostly Cloudy 71 21.7 58 14.4 63 63 S 7 11 30.11 1020 10 16 0.00 0.00
8:54 pm 20:54 Mostly Cloudy 69 20.6 58 14.4 68 68 SW 5 7 30.14 1021 10 16 0.00 0.00
9:54 pm 21:54 Mostly Clear 67 19.4 58 14.4 73 73 VRB 5 7 30.13 1020 10 16 0.00 0.00
10:54 pm 22:54 Mostly Clear 67 19.4 58 14.4 73 73 S 5 7 30.14 1021 10 16 0.00 0.00
11:54 pm 23:54 Partly Cloudy 65 18.3 58 14.4 78 78 Calm 30.14 1021 10 16 0.00 0.00

Powered by AerisWeather